Content
SEND FEEDBACK

Daily
Averages
Monthly
Summary
United States of America

AUBURN, ALABAMA


Home > North America > United States > Alabama
Elevation: 774 feet     Latitude: 32 36N     Longitude: 085 26W

WEATHER
 
SELECT A DAY
Number of Records: 459,589;   Date Range: 1/1/95 - 11/26/14
 
SHARE

PRINT THIS DATA

[ ← Previous Day ]
WEATHER ALMANAC - FEBRUARY 13, 2013
[ Next Day → ]
[ °C ]   °F
Weather ElementAverageHighLow
Temperature48.1 °F51.8 °F (4:35 am)37.4 °F (11:55 pm)
Dewpoint41.7 °F48.2 °F (3:55 am)33.8 °F (8:55 pm)
Humidity78.9 %94 % (3:55 am)66 % (3:15 pm)
Barometer29.85 in29.99 in (11:55 pm)29.71 in (3:35 am)
Wind Speed8.8 mph16.1 mph (9:15 am)
Wind Gust23 mph (3:15 pm)
Weather ElementAverage
Visibility8.2 mi
Wind DirectionWSW (254.9 °)

Weather ElementTotal
Precipitation0.03 in
Heating Degree Days20.4 (Base 65)
Averaged from 69 records on February 13, 2013
WEATHER CONDITIONS BREAKOUT
WIND DIRECTION BREAKOUT
WEATHER BY HOUR - FEBRUARY 13, 2013
[ °C ]   °F
Local TimeTemperatureDewpointHumidityBarometerVisibilityWind DirectionWind SpeedGust SpeedPrecipitationEventsConditions
12:35 AM48.2 °F44.6 °F87 %29.76 in10.0 miEast (100°)6.9 mphOvercast
12:55 AM48.2 °F44.6 °F87 %29.75 in7.0 miESE (110°)8.1 mphOvercast
1:15 AM48.2 °F46.4 °F93 %29.76 in5.0 miEast (100°)5.8 mphOvercast
1:35 AM48.2 °F46.4 °F93 %29.76 in4.0 miESE (120°)5.8 mphOvercast
1:55 AM48.2 °F46.4 °F93 %29.76 in3.0 miESE (110°)4.6 mphOvercast
2:15 AM48.2 °F46.4 °F93 %29.75 in5.0 miSE (130°)4.6 mphOvercast
2:35 AM48.2 °F46.4 °F93 %29.73 in3.0 miSE (130°)6.9 mphOvercast
2:55 AM50.0 °F46.4 °F87 %29.73 in2.0 miSE (140°)4.6 mphOvercast
3:15 AM50.0 °F46.4 °F87 %29.74 in2.5 miSSE (160°)5.8 mphOvercast
3:35 AM50.0 °F46.4 °F87 %29.71 in1.2 miCalmOvercast
3:55 AM50.0 °F48.2 °F94 %29.72 in1.2 miSSE (160°)4.6 mphOvercast
4:15 AM50.0 °F46.4 °F87 %29.73 in0.8 miSouth (190°)4.6 mphOvercast
4:35 AM51.8 °F48.2 °F88 %29.75 in0.8 miSouth (190°)5.8 mph0.01 inOvercast
4:55 AM51.8 °F48.2 °F88 %29.76 in0.5 miSSW (210°)8.1 mph0.01 inOvercast
5:35 AM51.8 °F48.2 °F88 %29.75 in1.0 miSW (230°)8.1 mph18.4 mphOvercast
5:55 AM51.8 °F48.2 °F88 %29.76 in1.8 miWSW (240°)10.4 mph17.3 mphOvercast
6:15 AM51.8 °F48.2 °F88 %29.78 in3.0 miWSW (250°)9.2 mphOvercast
6:35 AM51.8 °F48.2 °F88 %29.77 in5.0 miWSW (250°)12.7 mph21.9 mphOvercast
6:55 AM51.8 °F48.2 °F88 %29.79 in10.0 miWSW (250°)10.4 mph18.4 mphOvercast
7:15 AM51.8 °F46.4 °F82 %29.78 in10.0 miWSW (250°)9.2 mph16.1 mphOvercast
7:35 AM51.8 °F46.4 °F82 %29.81 in10.0 miWest (260°)9.2 mphOvercast
7:55 AM51.8 °F46.4 °F82 %29.77 in10.0 miWSW (240°)8.1 mph19.6 mphOvercast
8:15 AM51.8 °F46.4 °F82 %29.80 in10.0 miWSW (250°)9.2 mph16.1 mphOvercast
8:35 AM51.8 °F46.4 °F82 %29.84 in10.0 miWest (260°)15.0 mph21.9 mphOvercast
8:55 AM51.8 °F44.6 °F76 %29.84 in10.0 miWest (260°)9.2 mph20.7 mphOvercast
9:15 AM51.8 °F44.6 °F76 %29.86 in10.0 miWest (260°)16.1 mph20.7 mphOvercast
9:35 AM51.8 °F44.6 °F76 %29.85 in10.0 miWest (260°)10.4 mph21.9 mphOvercast
9:55 AM51.8 °F44.6 °F76 %29.82 in10.0 miWest (270°)11.5 mph18.4 mphOvercast
10:15 AM51.8 °F44.6 °F76 %29.85 in10.0 miWest (270°)10.4 mph21.9 mphMostly Cloudy
10:35 AM51.8 °F44.6 °F76 %29.87 in10.0 miWest (270°)11.5 mph20.7 mphOvercast
10:55 AM51.8 °F42.8 °F71 %29.85 in10.0 miWest (270°)13.8 mph19.6 mphOvercast
11:15 AM51.8 °F42.8 °F71 %29.85 in10.0 miWest (270°)11.5 mph19.6 mphOvercast
11:35 AM50.0 °F44.6 °F82 %29.85 in10.0 miWest (260°)8.1 mphOvercast
11:55 AM48.2 °F42.8 °F82 %29.89 in10.0 miWest (270°)11.5 mph17.3 mph0.01 inMostly Cloudy
12:15 PM48.2 °F42.8 °F82 %29.84 in10.0 miWest (270°)8.1 mph18.4 mphOvercast
12:35 PM48.2 °F42.8 °F82 %29.82 in10.0 miWest (280°)10.4 mphOvercast
12:55 PM48.2 °F42.8 °F82 %29.82 in10.0 miWest (270°)6.9 mphOvercast
1:15 PM48.2 °F42.8 °F82 %29.82 in10.0 miWSW (250°)5.8 mphOvercast
1:35 PM48.2 °F42.8 °F82 %29.84 in10.0 miWSW (250°)8.1 mphOvercast
1:55 PM48.2 °F41.0 °F76 %29.83 in10.0 miWSW (250°)9.2 mphOvercast
2:15 PM48.2 °F41.0 °F76 %29.83 in10.0 miWest (270°)8.1 mphOvercast
2:35 PM48.2 °F39.2 °F71 %29.85 in10.0 miWest (260°)9.2 mphOvercast
2:55 PM48.2 °F39.2 °F71 %29.85 in10.0 miWNW (290°)10.4 mph17.3 mphOvercast
3:15 PM48.2 °F37.4 °F66 %29.86 in10.0 miWNW (300°)11.5 mph23.0 mphOvercast
3:35 PM48.2 °F37.4 °F66 %29.87 in10.0 miWest (280°)12.7 mphMostly Cloudy
3:55 PM48.2 °F37.4 °F66 %29.87 in10.0 miWNW (290°)11.5 mphOvercast
4:15 PM48.2 °F37.4 °F66 %29.88 in10.0 miWNW (300°)9.2 mphOvercast
4:35 PM48.2 °F37.4 °F66 %29.88 in10.0 miWNW (290°)10.4 mphOvercast
4:55 PM48.2 °F37.4 °F66 %29.88 in10.0 miWNW (300°)6.9 mphOvercast
5:15 PM46.4 °F37.4 °F71 %29.90 in10.0 miWNW (290°)9.2 mphMostly Cloudy
5:35 PM46.4 °F37.4 °F71 %29.90 in10.0 miWNW (300°)16.1 mph21.9 mphOvercast
5:55 PM46.4 °F37.4 °F71 %29.91 in10.0 miWNW (300°)11.5 mph17.3 mphOvercast
6:15 PM46.4 °F37.4 °F71 %29.91 in10.0 miWNW (300°)12.7 mphOvercast
6:35 PM46.4 °F37.4 °F71 %29.92 in10.0 miNW (310°)12.7 mphOvercast
6:55 PM46.4 °F37.4 °F71 %29.93 in10.0 miNW (310°)8.1 mphMostly Cloudy
7:15 PM46.4 °F37.4 °F71 %29.93 in10.0 miNW (320°)9.2 mphOvercast
7:35 PM46.4 °F37.4 °F71 %29.94 in10.0 miNW (320°)8.1 mphOvercast
7:55 PM46.4 °F37.4 °F71 %29.94 in10.0 miNNW (330°)12.7 mph17.3 mphOvercast
8:15 PM44.6 °F35.6 °F71 %29.95 in10.0 miNNW (330°)9.2 mph17.3 mphOvercast
8:35 PM44.6 °F35.6 °F71 %29.96 in10.0 miNNW (340°)8.1 mphScattered Clouds
8:55 PM44.6 °F33.8 °F66 %29.96 in10.0 miNNW (330°)8.1 mphClear
9:15 PM42.8 °F33.8 °F70 %29.95 in10.0 miNNW (330°)8.1 mphClear
9:55 PM42.8 °F33.8 °F70 %29.96 in10.0 miNW (320°)6.9 mphClear
10:15 PM41.0 °F33.8 °F76 %29.96 in10.0 miNNW (340°)6.9 mphClear
10:35 PM39.2 °F33.8 °F81 %29.96 in10.0 miNNW (340°)6.9 mphClear
10:55 PM39.2 °F33.8 °F81 %29.97 in10.0 miNNW (340°)5.8 mphClear
11:15 PM39.2 °F33.8 °F81 %29.98 in10.0 miNNW (340°)5.8 mphClear
11:35 PM39.2 °F33.8 °F81 %29.98 in10.0 miNW (320°)5.8 mphClear
11:55 PM37.4 °F33.8 °F87 %29.99 in10.0 miNNW (340°)3.5 mphClear
Hourly data recorded from KAUO, located miles away from Auburn, Alabama







STORIES FROM OUR PARTNERS